Zurück zum Katalog

BREEZE-M DEB

LostHEO
NORAD 41324·DEBRIS·🇷🇺 Russia

Gestartet May 17, 2012 von Baikonur Cosmodrome

Loading…

Nächste Überflüge (nächste 24 Stunden)

TLE

VeraltetSource: Space-Track

Epoche: Oct 28, 2023, 07:05 UTC

1 41324U 12026L   23301.29572420 -.00000034  00000-0  00000+0 0  9992
2 41324   9.8875 211.2528 4190958 270.5271  43.2233  1.79782617 51049

Verfolge BREEZE-M DEB in Echtzeit mit AllMySat

Download on the App Store